Location: Cisewo
(53.3833°N, 14.9000°E)
Time: 10:16:04
(UTC+00:00)

Cosmos 1943 - Pass Details

Date: 18 April 2021
Orbit: 834 x 849 km, 71.0° (Epoch: 14 May)

Event Time Altitude Azimuth Distance (km) Brightness Sun altitude
Rises 20:57:05 0° 328° (NNW) 3,396 8.0 -20.4°
Reaches altitude 10° 20:59:37 10° 334° (NNW) 2,459 6.8 -20.6°
Maximum altitude 21:05:05 48° 49° (NE) 1,084 3.8 -21.0°
Enters shadow 21:07:22 31° 104° (ESE) 1,427 4.0 -21.2°
